Location: Bonny Doon Airfield
(37.0704°N, 122.1252°W)
Time: 06:57:13
(UTC-07:00)

BREEZE M DEB (TANK) - Visible Passes

Search period start: 23 July 2014 00:00
Search period end: 02 August 2014 00:00
Orbit: 344 x 13827 km, 49.6° (Epoch: 21 July)

Date Brightness Start Highest point End Pass type
(mag) Time Alt. Az. Time Alt. Az. Time Alt. Az.
23 Jul 9.4 22:53:45 10° WNW 23:20:39 27° WSW 00:27:43 10° SSW visible
24 Jul 8.5 20:18:20 10° WNW 20:38:24 61° SW 22:12:43 10° S visible
25 Jul 9.3 22:21:44 10° WNW 22:48:04 30° WSW 00:00:12 10° SSW visible
26 Jul 8.3 19:47:34 10° WNW 20:05:54 65° SW 21:38:24 10° SSE visible
27 Jul 9.2 21:50:01 10° WNW 22:15:22 34° WSW 23:31:25 10° SSW visible
28 Jul 8.2 19:16:51 10° WNW 19:33:33 69° SW 21:03:19 10° SSE visible
29 Jul 9.1 21:18:30 10° WNW 21:42:36 37° WSW 23:01:30 10° S visible
30 Jul 8.0 18:46:09 10° WNW 19:01:19 74° SW 20:27:28 10° SSE visible
30 Jul 9.7 23:43:44 10° WSW 23:50:28 10° WSW 23:58:16 10° WSW visible
31 Jul 9.0 20:47:09 10° WNW 21:09:47 41° SW 22:30:36 10° S visible
01 Aug 9.6 23:01:11 10° W 23:18:19 14° WSW 23:45:23 10° SW visible
